Chattanooga, TN

3:50 PM EST on February 11, 2016 (GMT -0500)
Lovell

Weather History for KCHA - May, 2014

Change the Weather History Date:

Tuesday, May 6, 2014

  Actual Average Record
Temperature  
Mean Temperature 72 °F 66 °F  
Max Temperature 88 °F 78 °F 94 °F (1952)
Min Temperature 56 °F 54 °F 36 °F (1968)
Degree Days  
Heating Degree Days 0 2  
Month to date heating degree days 13 14  
Since 1 July heating degree days 3362 3214  
Cooling Degree Days 7 3  
Month to date cooling degree days 17 16  
Year to date cooling degree days 55 62  
Growing Degree Days 22 (Base 50)    
Moisture  
Dew Point 52 °F    
Average Humidity 57    
Maximum Humidity 86    
Minimum Humidity 27    
Precipitation  
Precipitation 0.00 in 0.14 in 3.28 in (2003)
Month to date precipitation 0.00 0.85  
Year to date precipitation 15.44 19.57  
Snow  
Snow 0.00 in 0.00 in - ()
Month to date snowfall 0.0 0.0  
Since 1 July snowfall 8.4 3.9  
Snow Depth 0.00 in    
Sea Level Pressure  
Sea Level Pressure 29.94 in    
Wind  
Wind Speed 3 mph (SW)    
Max Wind Speed 16 mph    
Max Gust Speed 21 mph    
Visibility 10 miles    
Events      
T = Trace of Precipitation, MM = Missing Value Source: NWS Daily Summary

Daily Weather History Graph

Daily Weather History Graph

Search for Another Location

Airport or City:

Trip Planner

Search our weather history database for the weather conditions in past years. The results will help you decide how hot, cold, wet, or windy it might be!

Date:

Astronomy

May. 06, 2014 Rise Set
Actual Time 6:44 AM EDT 8:30 PM EDT
Civil Twilight 6:17 AM EDT 8:57 PM EDT
Nautical Twilight 5:44 AM EDT 9:31 PM EDT
Astronomical Twilight 5:09 AM EDT 10:06 PM EDT
Moon 12:57 PM EDT (5/6) 1:51 AM EDT (5/6)
Length of Visible Light 14h 40m
Length of Day
13h 45m
Waxing Crescent, 46% of the Moon is Illuminated
May 6
Waxing Crescent
May 6
First Quarter
May 14
Full
May 21
Last Quarter
May 28
New

Hourly Weather History & Observations

Time (EDT) Temp. Heat Index Dew Point Humidity Pressure Visibility Wind Dir Wind Speed Gust Speed Precip Events Conditions
12:53 AM 66.0 °F - 54.0 °F 65% 29.92 in 10.0 mi SSW 4.6 mph - N/A   Clear
1:53 AM 66.2 °F - 53.6 °F 64% 29.94 in 10.0 mi Calm Calm - N/A   Clear
2:53 AM 64.0 °F - 52.0 °F 65% 29.91 in 10.0 mi Calm Calm - N/A   Clear
7:53 AM 60.1 °F - 54.0 °F 80% 29.98 in 10.0 mi Calm Calm - N/A   Scattered Clouds
8:53 AM 66.9 °F - 55.0 °F 66% 29.99 in 10.0 mi Calm Calm - N/A   Scattered Clouds
10:53 AM 77.0 °F - 54.0 °F 45% 29.98 in 10.0 mi Calm Calm - N/A   Partly Cloudy
11:53 AM 80.1 °F 80.0 °F 54.0 °F 40% 29.98 in 10.0 mi Calm Calm - N/A   Partly Cloudy
12:53 PM 82.9 °F - 51.1 °F 33% 29.96 in 10.0 mi SW 6.9 mph - N/A   Partly Cloudy
1:53 PM 84.9 °F - 50.0 °F 30% 29.94 in 10.0 mi WSW 12.7 mph - N/A   Partly Cloudy
2:53 PM 84.9 °F - 50.0 °F 30% 29.92 in 10.0 mi Variable 5.8 mph - N/A   Partly Cloudy
3:53 PM 87.1 °F - 51.1 °F 29% 29.90 in 10.0 mi West 5.8 mph - N/A   Partly Cloudy
4:53 PM 88.0 °F - 50.0 °F 27% 29.89 in 10.0 mi South 13.8 mph 20.7 mph N/A   Partly Cloudy
5:53 PM 87.1 °F - 50.0 °F 28% 29.89 in 10.0 mi SSW 11.5 mph - N/A   Clear
6:53 PM 86.0 °F - 48.9 °F 28% 29.90 in 10.0 mi SW 9.2 mph - N/A   Partly Cloudy
7:53 PM 84.0 °F - 48.9 °F 29% 29.91 in 10.0 mi SW 9.2 mph - N/A   Partly Cloudy
8:53 PM 79.0 °F - 52.0 °F 39% 29.92 in 10.0 mi South 3.5 mph - N/A   Partly Cloudy
9:53 PM 75.9 °F - 55.9 °F 50% 29.94 in 10.0 mi Calm Calm - N/A   Clear
10:53 PM 72.0 °F - 57.9 °F 61% 29.95 in 10.0 mi Calm Calm - N/A   Clear
11:53 PM 66.0 °F - 57.9 °F 75% 29.96 in 10.0 mi Calm Calm - N/A   Clear